Hourly Data Report for August 03, 2006

TORONTO CITY
ONTARIO

43°40'00.000" N
79°24'00.000" W
112.50 m
6158355
71508
XTO

Download Data

Hourly Data (August 2006)
Hourly Data Report for August 3, 2006
TIME
LST
Temp Definition
°C
Dew Point Definition
°C
Rel Hum Definition
%
Precip. Amount Definition
mm

Wind Dir Definition
10's deg

Wind Spd Definition
km/h
Visibility Definition
km
Stn Press Definition
kPa
Hmdx Definition


Wind Chill Definition


Weather Definition


00:00 23.0 22.2 95   LegendMM LegendMM   99.36 33   LegendNANA
01:00 23.4 22.7 96   LegendMM LegendMM   99.34 33   LegendNANA
02:00 22.3 21.6 96   LegendMM LegendMM   99.20 31   LegendNANA
03:00 23.4 23.0 98   LegendMM LegendMM   99.23 34   LegendNANA
04:00 23.5 22.5 94   LegendMM LegendMM   99.31 33   LegendNANA
05:00 22.7 20.5 87   LegendMM LegendMM   99.35 31   LegendNANA
06:00 22.4 20.4 88   LegendMM LegendMM   99.47 30   LegendNANA
07:00 22.6 20.2 86   LegendMM LegendMM   99.47 30   LegendNANA
08:00 23.0 19.9 83   LegendMM LegendMM   99.49 30   LegendNANA
09:00 22.9 20.3 85   LegendMM LegendMM   99.58 31   LegendNANA
10:00 23.4 20.2 82   LegendMM LegendMM   99.63 31   LegendNANA
11:00 24.0 20.6 81   LegendMM LegendMM   99.62 32   LegendNANA
12:00 23.8 20.6 82   LegendMM LegendMM   99.65 32   LegendNANA
13:00 23.5 21.2 87   LegendMM LegendMM   99.65 32   LegendNANA
14:00 22.9 21.3 91   LegendMM LegendMM   99.57 32   LegendNANA
15:00 22.7 22.2 97   LegendMM LegendMM   99.48 32   LegendNANA
16:00 22.1 20.9 93   LegendMM LegendMM   99.53 30   LegendNANA
17:00 21.7 20.9 95   LegendMM LegendMM   99.58 30   LegendNANA
18:00 21.9 20.9 94   LegendMM LegendMM   99.52 30   LegendNANA
19:00 21.6 20.6 94   LegendMM LegendMM   99.54 30   LegendNANA
20:00 21.9 20.9 94   LegendMM LegendMM   99.52 30   LegendNANA
21:00 22.0 21.1 95   LegendMM LegendMM   99.60 31   LegendNANA
22:00 21.5 20.6 95   LegendMM LegendMM   99.60 30   LegendNANA
23:00 21.7 20.6 93   LegendMM LegendMM   99.64 30   LegendNANA

Notes on Data Quality.

Legend

  • E = Estimated
  • M = Missing
  • NA = Not Available*
  • [empty] = Indicates an unobserved value
Date modified: